Content
SEND FEEDBACK

Daily
Averages
Monthly
Summary
United States of America

GLENVIEW, ILLINOIS


Home > North America > United States > Illinois
Elevation: 653 feet     Latitude: 42 05N     Longitude: 087 50W

WEATHER
 
SELECT A DAY
Number of Records: 195,075;   Date Range: 7/8/95 - 9/16/14
 
SHARE

PRINT THIS DATA

[ ← Previous Day ]
WEATHER ALMANAC - NOVEMBER 13, 2013
[ Next Day → ]
[ °C ]   °F
Weather ElementAverageHighLow
Temperature32.9 °F42.1 °F (1:52 pm)21.9 °F (1:52 am)
Dewpoint15 °F19.9 °F (6:52 pm)10.9 °F (12:52 pm)
Humidity49.9 %72 % (1:52 am)29 % (12:52 pm)
Barometer30.40 in30.61 in (1:52 am)30.18 in (11:52 pm)
Wind Speed11.7 mph19.6 mph (12:52 pm)
Wind Gust29.9 mph (7:52 pm)
Weather ElementAverage
Visibility9.4 mi
Wind DirectionSW (219.6 °)

Weather ElementTotal
Precipitation---
Heating Degree Days33 (Base 65)
Averaged from 25 records on November 13, 2013
WEATHER CONDITIONS BREAKOUT
WIND DIRECTION BREAKOUT
WEATHER BY HOUR - NOVEMBER 13, 2013
[ °C ]   °F
Local TimeTemperatureDewpointHumidityBarometerVisibilityWind DirectionWind SpeedGust SpeedPrecipitationEventsConditions
1:52 AM21.9 °F14.0 °F72 %30.61 in10.0 miWSW (250°)3.5 mphClear
2:52 AM21.9 °F14.0 °F72 %30.61 in10.0 miWSW (250°)3.5 mphClear
3:52 AM21.9 °F12.0 °F66 %30.60 in10.0 miSW (230°)3.5 mphClear
4:52 AM21.9 °F12.0 °F66 %30.58 in10.0 miSW (230°)5.8 mphClear
5:52 AM21.9 °F12.0 °F66 %30.57 in10.0 miSW (230°)5.8 mphClear
6:52 AM21.9 °F12.9 °F68 %30.57 in10.0 miSSW (210°)5.8 mphClear
7:52 AM25.0 °F14.0 °F63 %30.56 in10.0 miSW (220°)6.9 mphClear
8:52 AM28.9 °F14.0 °F54 %30.54 in10.0 miSW (230°)11.5 mphClear
9:52 AM33.1 °F14.0 °F46 %30.50 in10.0 miSW (220°)11.5 mph20.7 mphClear
10:23 AM35.6 °F14.0 °F41 %30.46 in1.8 miSSW (210°)13.8 mph20.7 mphHaze
10:38 AM35.6 °F12.2 °F38 %30.45 in2.5 miSW (220°)12.7 mph23.0 mphHaze
10:52 AM36.0 °F12.9 °F39 %30.47 in10.0 miSW (220°)15.0 mph20.7 mphClear
11:52 AM39.0 °F12.0 °F33 %30.42 in10.0 miSW (220°)16.1 mph25.3 mphClear
12:52 PM41.0 °F10.9 °F29 %30.39 in10.0 miSW (220°)19.6 mph27.6 mphClear
1:52 PM42.1 °F12.9 °F31 %30.35 in10.0 miSSW (210°)12.7 mph21.9 mphClear
2:52 PM42.1 °F14.0 °F32 %30.32 in10.0 miSSW (210°)11.5 mph23.0 mphClear
3:52 PM39.9 °F14.0 °F35 %30.30 in10.0 miSSW (210°)16.1 mph25.3 mphClear
4:52 PM37.9 °F18.0 °F45 %30.28 in10.0 miSSW (200°)15.0 mph26.5 mphClear
5:52 PM37.0 °F19.0 °F48 %30.27 in10.0 miSSW (210°)17.3 mph24.2 mphClear
6:52 PM37.0 °F19.9 °F50 %30.24 in10.0 miSSW (210°)17.3 mph25.3 mphClear
7:52 PM37.0 °F19.9 °F50 %30.23 in10.0 miSSW (210°)16.1 mph29.9 mphClear
8:52 PM36.0 °F19.9 °F52 %30.22 in10.0 miSSW (210°)16.1 mph24.2 mphClear
9:52 PM36.0 °F19.0 °F50 %30.20 in10.0 miSW (220°)12.7 mph21.9 mphClear
10:52 PM36.0 °F19.0 °F50 %30.19 in10.0 miSW (220°)12.7 mph23.0 mphClear
11:52 PM35.1 °F19.0 °F52 %30.18 in10.0 miSW (220°)10.4 mph20.7 mphClear
Hourly data recorded from KPWK, located miles away from Glenview, Illinois







STORIES FROM OUR PARTNERS